Wind_Speed
37 33 29 27 26 25 25 26 27 27 27 30 30 28 26 25 25 23 21 20 18 17 17 17 17 19 19 19 19 18 16 13 12 12 12 12 9 8
31 28 25 24 24 25 26 26 25 25 24 26 26 25 23 22 22 22 22 21 19 17 18 19 20 21 20 19 18 15 13 14 15 14 11 10 9 9
28 23 21 22 24 25 25 24 24 24 23 23 24 24 23 21 20 20 22 21 20 18 18 19 20 19 18 18 17 15 15 16 15 11 9 9 9 9
23 22 21 23 24 24 23 23 24 24 24 22 23 23 23 23 21 20 21 21 21 20 20 20 20 18 17 18 18 17 15 13 12 11 10 10 10 9
20 22 23 25 26 25 24 24 24 25 24 23 23 24 24 24 23 22 21 22 23 22 22 21 18 17 18 19 20 17 14 13 12 11 11 9 8 8
24 25 26 27 27 26 26 26 26 26 25 24 24 25 26 25 24 24 23 23 24 22 21 21 19 18 19 21 22 20 18 16 15 14 12 11 11 11
27 27 28 28 28 28 28 28 29 29 27 26 26 26 27 25 24 24 24 24 22 21 21 22 22 22 23 25 26 26 24 21 19 18 17 17 17 17
34 33 33 32 31 31 31 31 30 30 30 30 29 28 27 25 24 24 24 24 23 22 22 23 24 26 27 28 29 29 27 24 23 22 21 21 20 20
40 39 38 37 35 33 31 31 32 32 31 30 29 28 26 25 24 25 26 26 25 24 24 24 25 27 27 28 29 28 27 26 24 23 21 18 16 17
43 42 41 39 36 32 31 31 32 32 32 31 30 29 28 26 25 27 29 30 30 29 29 28 27 26 28 28 27 27 26 25 23 22 20 19 17 17
42 42 41 40 37 34 33 33 33 33 33 33 33 33 32 31 30 29 30 31 32 33 33 31 31 28 26 28 31 30 29 27 25 24 23 21 19 19
37 37 38 39 39 37 36 35 35 34 34 35 35 35 35 35 35 34 33 33 33 34 35 34 33 31 29 27 27 28 28 28 27 26 24 22 20 18
32 32 34 37 38 37 37 37 37 36 35 35 35 35 35 36 36 36 34 34 34 36 36 35 33 32 31 30 29 27 26 27 27 26 24 22 21 19
28 28 29 32 34 36 36 38 38 39 38 36 34 34 34 34 35 35 34 34 35 36 37 35 32 32 31 30 29 28 26 26 26 24 22 22 21 20
25 25 25 25 27 30 33 35 35 36 38 37 36 34 33 33 32 31 30 31 33 36 37 36 31 28 28 28 28 27 25 24 23 23 23 23 21 20
28 27 25 24 23 23 24 27 31 33 36 37 37 37 36 35 34 33 32 30 31 33 34 35 35 34 32 32 31 29 27 24 23 23 24 24 23 22
32 32 30 29 28 27 26 25 25 25 26 27 29 32 35 37 37 37 38 38 36 35 35 36 36 37 38 39 38 38 37 34 31 30 29 28 27 26
35 35 35 35 34 34 33 31 29 29 28 28 27 26 26 28 32 36 39 40 40 39 38 38 39 39 38 38 38 39 40 38 36 34 33 30 28 27
38 39 40 41 41 42 42 41 40 38 36 34 34 33 32 30 28 28 29 32 35 37 38 38 40 41 40 38 37 36 36 37 36 35 34 33 31 30
38 39 41 42 43 44 45 46 46 46 45 43 41 40 39 37 35 32 29 27 27 28 30 33 36 39 40 40 38 37 36 35 34 34 34 33 32 31
37 39 40 40 41 42 43 44 45 47 48 48 48 47 46 44 43 41 39 36 32 29 27 25 26 31 35 37 37 37 37 37 36 34 34 33 32 30
36 36 37 39 40 41 41 41 42 44 46 48 51 52 52 51 50 49 48 46 43 39 34 31 28 28 29 30 32 34 34 34 34 33 33 33 33 31
39 38 38 38 39 40 41 42 43 43 45 45 47 50 51 52 54 54 54 53 51 48 44 40 37 35 33 31 30 31 31 30 31 32 32 32 32 33
Wind_Direction
253 255 257 261 264 265 272 278 281 282 282 286 290 291 292 293 291 291 295 294 295 285 276 272 270 268 267 268 271 270 263 249 213 188 177 175 184 196
250 254 257 259 261 266 272 275 277 277 277 282 286 289 291 291 289 286 288 288 284 282 273 266 267 270 269 271 267 257 239 212 193 184 180 188 207 217
253 254 261 264 265 267 268 270 273 275 274 277 283 287 289 288 288 285 282 284 283 281 275 267 264 266 273 265 254 235 211 196 189 187 193 212 229 235
262 263 263 264 265 266 267 269 273 275 274 275 280 286 288 286 286 284 280 281 283 278 272 265 260 264 261 252 241 222 204 195 196 202 213 227 240 253
272 267 263 263 264 266 266 268 273 275 276 277 281 284 286 285 283 283 283 280 282 275 267 259 252 254 251 243 232 215 204 203 206 212 220 231 247 264
270 267 265 266 266 267 266 267 270 271 274 278 281 282 281 281 282 281 283 281 281 272 263 253 247 248 244 237 228 217 213 215 217 223 233 246 256 261
278 276 274 273 270 268 267 267 267 266 268 272 277 280 278 276 277 278 277 278 276 267 261 256 253 245 236 229 225 221 221 221 224 232 245 258 265 266
282 281 280 279 276 273 269 267 266 266 265 267 271 275 274 272 270 271 271 269 269 265 263 264 267 261 246 230 224 223 225 226 229 237 250 262 269 271
284 284 284 285 284 281 275 271 267 265 264 265 266 269 269 266 262 261 263 265 267 268 267 265 269 271 262 244 227 221 223 226 233 242 254 267 276 277
283 284 284 284 284 281 277 273 269 264 262 261 262 263 263 262 261 261 262 265 268 270 269 265 263 266 268 256 235 224 223 227 235 246 257 263 270 276
282 281 281 280 278 276 274 271 268 264 260 259 259 260 260 260 261 262 264 265 268 269 268 268 264 261 258 258 242 234 232 231 236 244 252 257 263 271
280 277 273 271 270 268 267 265 263 260 259 259 260 260 261 261 261 262 263 263 266 269 269 270 269 262 253 251 245 240 238 237 237 237 242 250 260 269
279 276 272 268 265 264 262 260 259 258 258 259 260 260 261 261 260 259 260 262 263 265 267 268 266 261 254 247 246 245 242 238 233 233 238 249 258 266
282 280 277 273 268 266 263 261 261 262 261 260 260 260 259 258 256 256 258 260 261 261 262 263 263 260 257 251 243 241 243 236 229 230 238 246 252 259
283 282 280 278 274 270 267 264 264 264 263 258 255 257 259 259 257 257 258 259 260 259 258 256 252 250 250 247 239 236 235 230 222 225 232 240 248 255
276 275 274 273 274 275 274 271 268 267 266 261 255 254 256 257 257 256 257 258 258 256 253 250 245 239 235 235 236 238 241 238 235 236 237 242 248 254
275 273 271 271 273 273 273 272 273 273 272 270 266 262 260 259 259 257 256 256 256 255 253 250 245 241 238 240 242 245 248 250 251 250 248 249 251 254
279 276 273 273 273 273 273 273 272 272 272 272 272 271 270 268 262 258 255 255 254 253 252 250 248 245 243 243 244 247 248 249 249 249 249 249 251 254
284 282 279 278 276 274 272 271 271 270 269 267 266 267 269 271 270 264 257 255 255 254 252 249 246 244 242 243 245 246 248 248 248 249 249 248 247 250
288 287 285 282 279 276 274 272 270 268 267 265 263 262 262 263 264 263 258 252 253 255 256 253 248 245 245 244 244 244 244 245 246 248 250 250 247 246
296 294 292 289 285 280 276 274 272 270 267 264 261 259 257 257 258 258 256 254 252 253 256 256 253 252 251 250 247 245 245 245 246 247 248 248 247 244
303 300 296 293 290 286 281 276 273 270 267 264 261 259 256 254 253 253 252 252 253 253 255 254 252 254 255 254 252 248 245 245 245 244 244 244 244 243
308 304 300 297 293 290 285 279 274 271 268 266 264 261 258 255 252 251 249 248 249 251 253 254 255 257 258 258 257 257 251 244 243 244 244 244 244 244
Height
5802 5803 5804 5805 5806 5808 5808 5809 5810 5810 5809 5807 5806 5806 5806 5806 5805 5804 5805 5805 5804 5804 5804 5804 5804 5805 5805 5804 5804 5803 5803 5803 5804 5805 5806 5808 5809 5811
5792 5794 5795 5797 5799 5800 5801 5801 5801 5802 5802 5801 5800 5800 5800 5800 5799 5798 5799 5799 5799 5799 5798 5798 5798 5799 5800 5800 5799 5799 5799 5800 5802 5803 5804 5806 5808 5809
5783 5785 5788 5790 5792 5793 5793 5794 5794 5795 5795 5795 5794 5793 5793 5794 5794 5793 5793 5793 5793 5793 5793 5793 5793 5794 5794 5795 5796 5796 5797 5798 5799 5800 5802 5805 5807 5808
5775 5778 5781 5784 5785 5786 5787 5787 5787 5788 5789 5789 5788 5787 5786 5787 5788 5788 5788 5788 5788 5788 5788 5788 5788 5789 5790 5791 5793 5793 5794 5795 5797 5798 5800 5802 5803 5804
5771 5773 5775 5777 5779 5779 5780 5781 5781 5781 5781 5782 5782 5781 5780 5781 5781 5782 5783 5783 5783 5783 5783 5783 5783 5784 5786 5788 5789 5790 5792 5793 5794 5795 5797 5798 5799 5800
5766 5767 5768 5770 5771 5771 5773 5774 5774 5774 5774 5775 5775 5775 5774 5774 5775 5776 5776 5777 5778 5778 5777 5777 5778 5779 5781 5783 5785 5786 5788 5789 5790 5791 5793 5794 5795 5796
5759 5760 5761 5762 5763 5764 5765 5766 5766 5766 5766 5767 5768 5768 5768 5768 5768 5769 5771 5771 5772 5772 5772 5772 5772 5773 5774 5777 5779 5781 5782 5784 5785 5787 5789 5790 5792 5792
5750 5752 5752 5753 5754 5755 5756 5757 5757 5757 5758 5759 5759 5760 5761 5761 5761 5762 5764 5765 5767 5767 5767 5766 5766 5766 5767 5769 5771 5774 5777 5778 5780 5782 5784 5785 5785 5786
5739 5740 5741 5742 5743 5744 5745 5746 5747 5747 5748 5749 5750 5751 5752 5753 5754 5755 5757 5758 5760 5761 5761 5761 5761 5760 5761 5761 5764 5767 5769 5771 5773 5775 5777 5778 5779 5779
5728 5728 5729 5730 5732 5733 5734 5735 5736 5737 5738 5739 5741 5742 5743 5744 5745 5747 5749 5751 5753 5754 5755 5755 5754 5754 5754 5754 5756 5759 5762 5765 5767 5769 5771 5772 5773 5773
5717 5717 5718 5719 5721 5722 5724 5725 5726 5727 5728 5729 5731 5732 5733 5734 5736 5738 5740 5742 5743 5745 5747 5747 5747 5747 5748 5747 5747 5751 5754 5757 5760 5763 5765 5766 5767 5767
5707 5707 5708 5709 5710 5711 5713 5714 5715 5716 5718 5719 5720 5722 5723 5725 5727 5728 5730 5732 5733 5735 5737 5739 5739 5740 5741 5740 5738 5742 5746 5749 5752 5755 5757 5759 5760 5760
5698 5698 5697 5697 5698 5700 5701 5703 5704 5705 5706 5708 5710 5711 5713 5715 5716 5718 5719 5721 5722 5724 5727 5729 5730 5732 5733 5734 5734 5735 5737 5740 5743 5746 5749 5751 5753 5754
5689 5688 5688 5687 5688 5689 5690 5692 5693 5694 5695 5697 5699 5700 5702 5703 5705 5706 5708 5710 5711 5714 5716 5719 5721 5723 5725 5726 5727 5728 5730 5732 5734 5738 5741 5744 5745 5747
5680 5679 5679 5679 5679 5679 5680 5681 5682 5683 5684 5686 5688 5689 5690 5692 5693 5695 5697 5699 5701 5703 5706 5709 5712 5714 5716 5717 5719 5720 5721 5724 5726 5729 5733 5736 5739 5741
5673 5673 5672 5672 5671 5671 5671 5671 5671 5672 5673 5675 5676 5677 5678 5680 5682 5684 5687 5689 5691 5693 5695 5698 5701 5703 5706 5708 5709 5711 5714 5717 5719 5722 5725 5728 5731 5733
5665 5664 5664 5663 5663 5663 5663 5662 5662 5663 5663 5663 5664 5665 5666 5668 5670 5672 5675 5678 5681 5683 5685 5687 5689 5692 5694 5697 5699 5701 5705 5708 5711 5714 5717 5720 5723 5725
5655 5654 5653 5653 5653 5653 5653 5653 5653 5653 5654 5654 5655 5655 5656 5657 5659 5660 5661 5664 5667 5670 5674 5676 5678 5680 5683 5686 5689 5692 5695 5698 5701 5704 5708 5711 5714 5715
5644 5642 5641 5641 5641 5641 5641 5641 5641 5642 5643 5644 5645 5646 5647 5649 5650 5651 5651 5652 5654 5656 5660 5664 5666 5668 5671 5675 5678 5681 5684 5687 5690 5693 5696 5700 5704 5706
5633 5631 5629 5628 5627 5626 5626 5626 5627 5628 5629 5631 5633 5635 5637 5639 5641 5642 5643 5644 5645 5646 5648 5651 5654 5656 5659 5663 5667 5670 5672 5675 5679 5682 5685 5688 5693 5696
5621 5618 5615 5613 5611 5610 5610 5610 5610 5611 5612 5614 5617 5619 5623 5626 5629 5631 5633 5635 5637 5639 5640 5643 5645 5646 5648 5651 5655 5659 5661 5664 5668 5672 5675 5678 5681 5685
5610 5606 5602 5599 5596 5594 5593 5593 5593 5593 5594 5595 5598 5601 5606 5610 5613 5616 5619 5622 5625 5628 5631 5634 5636 5638 5640 5642 5644 5647 5651 5653 5657 5661 5665 5668 5670 5674
5597 5593 5589 5585 5582 5579 5577 5576 5575 5575 5577 5578 5580 5582 5586 5590 5594 5598 5601 5605 5609 5613 5618 5621 5625 5628 5631 5633 5635 5637 5641 5645 5648 5651 5654 5657 5661 5664